Location: Newark
(48.6461°N, 4.3644°W)
Time: 13:57:11
(UTC+00:00)

S-56A Canister/Altair - Pass Details

Date: 23 January 2020
Orbit: 633 x 2500 km, 38.9° (Epoch: 28 February)

Event Time Altitude Azimuth Distance (km) Brightness Sun altitude
Rises 21:44:25 0° 234° (SW) 3,598 11.2 -45.9°
Enters shadow 21:44:49 - 233° (SW) 3,453 11.1 -46.0°
Reaches altitude 10° 21:47:46 10° 221° (SW) 2,408 - -46.4°
Maximum altitude 21:51:54 22° 170° (S) 1,496 - -47.0°
Drops below altitude 10° 21:55:27 10° 118° (ESE) 2,044 - -47.5°
Sets 21:58:02 0° 103° (ESE) 2,917 - -47.9°
